Wind_Speed
7 8 9 10 10 10 12 13 14 15 15 16 17 18 19 21 21 22 22 23 23 22 22 22 22 22 22 22 22 23 23 23 24 25 25 25 26 27 28 28 28 28 30
8 8 9 9 10 10 11 12 14 16 17 18 18 19 19 20 22 22 22 23 23 23 22 23 23 23 23 23 23 24 25 25 25 25 26 27 28 29 30 31 31 31 32
9 9 9 10 10 11 12 14 15 16 18 18 18 18 19 20 21 20 21 21 21 22 22 23 24 25 25 25 25 25 25 26 26 28 29 29 30 31 32 32 33 34 35
9 9 10 10 11 12 13 14 15 16 17 18 18 18 18 19 19 19 20 21 21 22 22 22 24 24 25 25 26 26 27 28 29 30 31 31 32 33 34 34 36 37 37
10 10 10 11 11 12 13 13 14 15 16 16 17 17 18 19 19 20 20 21 21 22 22 23 24 24 25 25 27 28 29 30 31 31 32 33 34 35 35 36 38 39 40
12 12 12 12 13 13 13 14 14 15 15 15 15 16 17 18 19 20 20 21 22 23 24 25 25 26 27 27 28 29 31 32 33 34 34 35 35 36 37 38 39 40 42
15 15 14 14 14 14 14 14 14 15 15 16 17 17 18 18 19 20 21 22 24 25 25 26 26 27 28 29 29 30 32 33 34 36 36 37 37 38 39 40 41 43 45
17 17 16 16 16 16 16 16 16 16 16 17 17 18 19 20 20 21 22 24 25 26 26 26 27 28 28 29 30 31 32 34 36 37 38 39 40 40 42 43 44 46 47
20 19 19 18 18 18 18 18 18 18 18 18 18 19 20 21 23 24 24 26 27 28 28 28 29 30 30 30 32 33 34 36 36 38 39 41 42 43 44 45 46 46 47
22 21 20 20 20 20 20 20 20 20 19 19 20 21 22 24 25 25 26 27 28 29 29 30 31 31 31 32 33 35 36 37 38 40 41 42 44 44 45 45 46 47 49
24 24 23 22 22 22 22 22 22 22 21 21 22 23 24 25 26 27 28 29 29 28 28 29 30 31 32 33 35 37 38 39 40 41 42 42 43 44 45 46 47 49 50
26 25 25 24 24 23 23 23 22 22 22 22 23 24 25 26 26 27 27 28 28 28 28 29 31 32 33 35 36 38 40 40 41 42 43 44 45 45 46 47 48 50 51
26 26 25 25 25 24 23 23 23 23 24 25 25 25 26 26 26 26 27 27 28 29 29 29 31 33 35 36 38 39 41 41 42 43 43 44 45 46 48 49 50 51 51
28 27 26 26 26 25 24 25 25 25 26 26 27 26 26 26 26 26 26 27 28 29 30 32 33 35 37 38 39 40 40 41 41 42 43 44 45 46 47 49 50 50 51
27 27 27 26 26 26 25 25 25 26 27 27 26 25 25 26 26 27 28 30 31 32 33 35 36 37 37 38 39 40 40 40 41 42 43 44 45 46 47 48 48 49 50
26 26 26 26 25 25 25 25 25 26 26 26 26 26 26 27 29 30 30 30 31 33 35 36 36 36 37 38 38 38 39 40 40 41 43 43 44 45 46 47 48 48 49
25 25 25 25 24 24 24 25 25 26 26 26 26 27 28 28 29 30 31 32 33 34 35 35 36 37 37 37 37 37 38 39 40 41 43 43 44 45 45 46 46 45 45
24 25 25 24 24 24 24 24 24 25 25 26 27 28 28 29 29 30 31 32 32 33 34 34 34 34 35 35 36 37 38 39 40 41 42 42 43 43 43 43 42 42 41
23 24 25 24 23 23 24 24 24 24 24 25 26 26 27 28 28 29 30 31 31 31 31 32 32 33 34 36 36 37 37 38 39 40 40 40 40 40 40 40 39 39 38
22 22 23 23 22 22 23 23 23 23 24 25 25 26 26 26 28 28 28 29 29 30 31 31 32 33 34 34 35 35 36 37 37 37 37 37 37 37 36 36 36 36 35
21 21 21 21 21 21 22 22 23 23 24 24 25 25 25 25 26 27 28 28 29 30 31 31 32 32 32 32 33 34 34 34 34 34 34 33 33 33 33 33 33 33 33
21 20 20 20 20 21 22 23 23 23 23 23 24 24 24 25 26 27 27 28 29 30 30 31 31 31 31 31 32 32 32 31 31 30 30 30 30 30 30 31 31 31 32
19 19 19 19 19 20 20 21 22 21 21 22 22 22 23 24 26 27 27 28 29 29 30 29 29 28 29 29 29 29 29 28 28 27 27 27 27 28 29 29 29 30 31
17 17 18 18 19 19 20 20 20 20 21 21 21 22 23 24 25 26 26 27 27 27 27 26 26 27 27 27 27 27 26 25 25 25 26 26 26 27 27 28 29 29 30
17 16 17 17 18 19 19 20 20 20 20 21 21 22 22 23 23 24 24 24 25 25 25 25 25 25 25 25 25 24 24 24 24 25 25 25 25 26 26 27 28 29 30
17 17 18 18 19 20 19 19 19 20 20 20 21 21 21 21 21 22 23 23 23 23 23 23 24 24 24 24 23 23 23 23 23 23 23 24 24 25 26 27 28 28 29
Wind_Direction
282 278 275 270 264 259 255 252 250 248 245 245 247 250 250 246 244 245 248 249 251 252 255 258 259 261 264 268 270 271 274 276 278 280 282 282 282 283 284 285 286 286 285
284 281 278 273 269 264 258 256 256 252 249 251 252 252 252 249 247 248 251 252 254 256 257 258 260 262 264 267 270 272 274 277 278 281 283 284 285 285 285 286 286 286 286
292 285 280 278 273 270 266 264 264 259 255 254 256 255 253 252 252 252 254 255 255 256 259 261 263 264 266 269 271 273 275 278 279 282 284 284 285 286 286 287 288 289 288
300 292 290 286 281 279 276 272 270 267 262 258 258 258 259 256 255 256 257 259 259 261 263 265 266 268 269 270 272 274 277 278 280 282 284 285 285 286 287 288 289 290 290
306 303 299 292 289 290 289 281 276 273 268 261 259 260 260 258 258 259 260 260 261 261 263 265 267 269 270 272 273 275 277 278 280 283 284 285 286 287 288 289 290 290 290
301 302 301 296 293 292 292 285 278 274 270 263 262 261 263 262 261 260 261 262 263 265 266 267 269 270 272 273 275 276 278 279 281 283 284 286 287 288 290 290 290 290 289
294 297 296 295 293 290 289 286 281 277 272 268 267 263 264 264 263 264 264 266 267 267 270 271 272 274 277 278 280 280 280 281 283 284 284 285 286 289 290 290 290 290 291
289 291 293 292 291 288 286 284 280 278 276 272 270 268 268 268 268 269 271 270 271 272 273 274 275 278 280 280 281 283 284 284 284 285 285 287 288 290 291 291 291 291 292
289 290 290 290 288 286 286 284 280 278 277 275 275 272 272 271 271 271 273 273 273 273 274 275 276 278 279 280 282 284 286 286 287 288 289 290 290 291 291 292 292 292 292
285 287 288 287 286 285 285 283 280 279 278 276 275 276 274 273 275 276 276 276 276 277 278 277 277 278 280 281 283 285 287 288 289 290 291 291 292 292 293 292 292 292 293
281 283 285 286 285 285 284 284 281 279 277 277 276 276 276 278 280 280 279 279 280 283 281 279 280 281 282 285 287 288 289 290 291 292 292 292 292 292 292 293 293 293 294
280 281 282 283 283 283 283 283 280 279 279 279 279 279 280 280 280 280 280 281 281 281 282 283 283 284 286 288 288 289 290 291 292 293 293 292 293 293 293 294 294 295 295
280 280 281 282 283 282 281 281 279 278 279 281 282 282 281 280 280 282 282 282 284 284 284 285 286 287 288 289 291 293 292 292 292 293 294 294 294 294 294 295 295 295 296
278 279 280 280 280 279 279 280 280 280 280 281 282 281 282 281 282 282 283 284 285 285 285 287 288 288 289 291 293 293 294 294 296 296 296 296 296 296 296 296 297 297 298
276 277 279 278 277 278 279 280 281 281 281 280 280 279 279 280 281 282 282 282 283 285 288 289 290 291 292 293 294 294 295 297 298 299 298 297 297 297 298 299 300 300 300
276 275 276 278 278 279 281 280 281 281 281 280 278 280 280 281 282 282 283 285 287 287 289 290 292 293 294 296 297 298 298 298 299 299 299 300 300 301 302 302 302 302 303
275 275 275 277 280 281 281 281 281 282 281 281 281 280 280 282 284 286 288 291 291 291 292 293 294 296 297 298 299 300 300 300 301 302 302 303 303 304 304 305 305 305 306
276 275 275 277 278 280 280 280 281 282 283 283 282 282 282 284 286 287 289 290 291 293 294 295 296 298 299 300 300 301 302 303 304 304 304 305 306 307 307 308 308 308 309
276 274 274 275 278 280 280 279 280 281 285 286 286 285 285 287 290 291 290 291 293 295 297 298 299 300 300 301 302 303 304 305 305 306 307 308 309 309 310 311 312 312 313
276 276 275 277 279 281 281 281 281 282 285 286 286 287 287 289 292 293 294 295 296 297 298 298 299 301 303 304 305 306 307 307 308 309 310 311 312 313 314 315 316 317 317
274 276 277 278 281 282 280 281 283 284 285 287 289 289 290 292 294 293 294 296 297 298 298 300 302 305 306 307 308 309 310 311 312 313 314 315 317 318 319 320 321 321 322
274 276 275 276 279 280 281 282 285 287 288 289 289 290 291 293 294 294 295 297 298 300 301 304 307 309 310 311 312 314 315 316 318 319 319 321 322 323 324 325 326 327 327
274 276 277 279 281 283 286 288 288 288 289 291 292 293 294 295 296 296 297 299 301 304 306 308 310 311 312 314 316 318 319 321 322 323 324 325 326 328 329 330 331 331 332
274 275 277 280 282 285 288 289 287 288 291 293 295 296 297 297 298 299 300 302 304 307 309 311 312 313 314 316 317 319 320 323 325 327 328 329 330 332 334 335 335 335 336
274 276 279 282 285 286 288 288 288 290 294 296 297 299 300 301 302 303 304 305 307 309 311 313 313 314 316 317 319 321 323 325 326 328 329 330 332 334 335 337 338 338 338
275 279 282 284 286 286 287 288 291 295 297 299 300 301 302 303 304 306 307 308 308 310 312 313 314 315 317 318 320 322 324 326 327 328 330 333 334 335 337 338 340 340 341
Height
5846 5846 5846 5846 5846 5847 5848 5849 5850 5852 5853 5854 5855 5857 5858 5860 5861 5863 5864 5865 5867 5868 5869 5870 5871 5872 5873 5873 5873 5873 5873 5873 5873 5872 5871 5871 5870 5869 5868 5867 5866 5865 5864
5845 5845 5845 5845 5845 5845 5846 5847 5848 5849 5850 5851 5852 5853 5854 5855 5857 5858 5859 5860 5862 5863 5864 5865 5866 5866 5867 5868 5868 5868 5868 5867 5867 5866 5865 5864 5863 5862 5860 5859 5858 5857 5856
5844 5844 5843 5843 5843 5843 5844 5844 5845 5845 5846 5847 5848 5849 5850 5851 5852 5853 5854 5856 5857 5858 5859 5860 5861 5861 5862 5862 5862 5862 5861 5861 5861 5860 5859 5858 5857 5855 5853 5851 5849 5848 5846
5843 5842 5841 5841 5841 5841 5841 5842 5842 5842 5842 5843 5844 5845 5846 5847 5848 5849 5850 5851 5852 5853 5854 5854 5855 5855 5856 5856 5856 5856 5855 5855 5854 5853 5852 5850 5849 5847 5845 5842 5841 5838 5836
5841 5840 5840 5839 5839 5839 5839 5839 5839 5839 5840 5840 5841 5841 5842 5843 5843 5844 5845 5846 5847 5848 5848 5849 5849 5849 5849 5849 5849 5849 5848 5847 5846 5845 5844 5842 5840 5838 5836 5834 5832 5829 5826
5839 5839 5838 5837 5837 5836 5836 5836 5836 5836 5836 5836 5837 5837 5838 5839 5839 5840 5840 5841 5842 5842 5843 5843 5843 5843 5843 5842 5842 5841 5840 5839 5838 5837 5835 5833 5831 5829 5826 5824 5821 5818 5816
5837 5836 5835 5834 5834 5833 5833 5833 5832 5832 5832 5832 5833 5833 5834 5834 5834 5835 5835 5836 5836 5837 5837 5837 5836 5836 5836 5835 5834 5833 5832 5831 5830 5828 5826 5824 5821 5819 5816 5813 5810 5806 5803
5834 5833 5832 5831 5830 5830 5829 5829 5829 5829 5828 5828 5828 5828 5828 5829 5829 5830 5830 5830 5830 5830 5830 5830 5829 5829 5829 5827 5826 5825 5824 5822 5820 5818 5816 5814 5811 5808 5805 5802 5798 5795 5790
5830 5829 5828 5827 5827 5826 5826 5825 5825 5824 5824 5824 5824 5824 5824 5824 5824 5824 5824 5824 5824 5824 5823 5823 5822 5821 5821 5819 5818 5817 5815 5813 5810 5808 5805 5802 5799 5796 5793 5789 5786 5782 5778
5825 5824 5824 5823 5822 5822 5822 5821 5820 5820 5819 5819 5819 5819 5819 5819 5819 5819 5819 5818 5817 5817 5816 5815 5814 5813 5812 5811 5809 5807 5805 5803 5800 5797 5794 5791 5787 5784 5780 5776 5772 5768 5764
5820 5819 5819 5818 5817 5817 5816 5815 5815 5814 5814 5813 5814 5813 5813 5813 5813 5813 5812 5811 5810 5809 5807 5806 5806 5804 5803 5801 5800 5798 5795 5793 5789 5786 5783 5779 5776 5772 5768 5763 5759 5755 5750
5813 5813 5813 5812 5812 5811 5810 5810 5809 5808 5808 5808 5808 5807 5807 5807 5806 5805 5805 5804 5803 5802 5800 5799 5798 5796 5794 5792 5790 5787 5784 5781 5778 5775 5771 5767 5763 5759 5755 5750 5746 5741 5736
5807 5807 5806 5806 5806 5805 5805 5804 5803 5803 5803 5802 5801 5801 5800 5800 5799 5798 5797 5796 5795 5794 5793 5791 5790 5788 5786 5783 5780 5777 5774 5770 5767 5763 5759 5755 5751 5747 5742 5737 5732 5727 5721
5800 5800 5799 5799 5799 5798 5798 5798 5797 5797 5796 5795 5794 5794 5793 5792 5792 5791 5790 5789 5788 5786 5785 5783 5781 5779 5776 5773 5770 5766 5762 5759 5755 5751 5747 5743 5738 5734 5729 5723 5718 5712 5707
5792 5792 5792 5792 5791 5791 5791 5791 5790 5790 5789 5788 5787 5786 5786 5785 5784 5784 5783 5781 5779 5778 5776 5774 5771 5769 5766 5762 5759 5755 5751 5747 5743 5739 5735 5730 5725 5720 5715 5710 5704 5698 5692
5785 5785 5785 5784 5784 5784 5784 5783 5782 5782 5781 5781 5780 5780 5779 5778 5776 5775 5774 5772 5771 5769 5767 5764 5762 5758 5755 5752 5748 5744 5741 5736 5732 5727 5723 5718 5713 5707 5702 5696 5690 5684 5678
5778 5778 5778 5777 5777 5777 5777 5776 5775 5775 5774 5773 5773 5772 5771 5770 5769 5767 5766 5764 5762 5760 5757 5755 5752 5748 5745 5741 5737 5733 5729 5725 5721 5716 5711 5706 5700 5695 5689 5683 5677 5671 5665
5771 5771 5771 5771 5771 5770 5770 5769 5769 5768 5767 5766 5765 5764 5763 5762 5761 5759 5757 5755 5753 5750 5748 5745 5742 5738 5735 5731 5727 5723 5719 5714 5710 5705 5699 5694 5688 5683 5677 5671 5665 5659 5653
5764 5764 5764 5764 5764 5763 5763 5763 5762 5761 5760 5759 5758 5757 5756 5754 5752 5751 5749 5747 5744 5742 5739 5736 5732 5729 5725 5721 5717 5713 5708 5704 5699 5694 5688 5683 5677 5672 5666 5660 5655 5649 5643
5758 5758 5757 5757 5757 5757 5756 5756 5755 5754 5753 5752 5751 5750 5748 5746 5745 5743 5740 5738 5736 5733 5730 5727 5723 5720 5716 5712 5707 5703 5698 5694 5689 5684 5679 5673 5668 5662 5657 5652 5646 5640 5635
5752 5751 5751 5751 5751 5750 5750 5749 5749 5748 5746 5745 5744 5742 5741 5739 5737 5735 5733 5730 5728 5725 5722 5718 5715 5711 5707 5702 5698 5694 5689 5685 5680 5675 5670 5665 5659 5654 5649 5644 5638 5633 5627
5746 5745 5745 5744 5744 5744 5743 5743 5742 5740 5739 5738 5736 5735 5733 5731 5729 5727 5725 5722 5719 5716 5713 5709 5706 5702 5698 5694 5690 5685 5681 5676 5672 5667 5662 5657 5653 5648 5643 5637 5632 5626 5621
5740 5739 5739 5739 5738 5738 5737 5736 5735 5734 5732 5731 5729 5728 5726 5724 5722 5719 5717 5714 5711 5708 5705 5701 5698 5694 5690 5687 5682 5678 5674 5670 5665 5661 5656 5652 5647 5642 5637 5632 5627 5621 5615
5734 5734 5734 5733 5733 5732 5731 5730 5729 5728 5726 5724 5723 5721 5719 5717 5714 5712 5710 5707 5704 5701 5697 5694 5691 5687 5684 5680 5676 5672 5668 5664 5660 5655 5651 5647 5642 5637 5632 5627 5622 5616 5611
5729 5729 5728 5728 5727 5726 5725 5724 5723 5721 5719 5718 5716 5714 5712 5710 5707 5705 5703 5700 5697 5694 5691 5688 5684 5681 5678 5674 5670 5667 5663 5659 5655 5651 5647 5642 5638 5633 5628 5623 5618 5612 5607
5723 5723 5723 5722 5721 5720 5719 5718 5717 5715 5713 5711 5709 5707 5705 5703 5701 5699 5696 5693 5690 5688 5685 5682 5679 5675 5672 5669 5665 5661 5658 5654 5651 5647 5642 5638 5634 5629 5625 5619 5614 5609 5603